#datetime,building,power
2022-12-22T00:00:00,lib,76.00
2022-12-22T00:01:00,lib,78.00
2022-12-22T00:02:00,lib,76.00
2022-12-22T00:03:00,lib,78.00
2022-12-22T00:04:00,lib,100.00
2022-12-22T00:05:00,lib,100.00
2022-12-22T00:06:00,lib,101.00
2022-12-22T00:07:00,lib,103.00
2022-12-22T00:08:00,lib,100.00
2022-12-22T00:09:00,lib,96.00
2022-12-22T00:10:00,lib,84.00
2022-12-22T00:11:00,lib,85.00
2022-12-22T00:12:00,lib,86.00
2022-12-22T00:13:00,lib,82.00
2022-12-22T00:14:00,lib,84.00
2022-12-22T00:15:00,lib,83.00
2022-12-22T00:16:00,lib,84.00
2022-12-22T00:17:00,lib,78.00
2022-12-22T00:18:00,lib,78.00
2022-12-22T00:19:00,lib,81.00
2022-12-22T00:20:00,lib,80.00
2022-12-22T00:21:00,lib,78.00
2022-12-22T00:22:00,lib,79.00
2022-12-22T00:23:00,lib,78.00
2022-12-22T00:24:00,lib,82.00
2022-12-22T00:25:00,lib,83.00
2022-12-22T00:26:00,lib,83.00
2022-12-22T00:27:00,lib,78.00
2022-12-22T00:28:00,lib,75.00
2022-12-22T00:29:00,lib,76.00
2022-12-22T00:30:00,lib,76.00
2022-12-22T00:31:00,lib,79.00
2022-12-22T00:32:00,lib,84.00
2022-12-22T00:33:00,lib,84.00
2022-12-22T00:34:00,lib,84.00
2022-12-22T00:35:00,lib,86.00
2022-12-22T00:36:00,lib,80.00
2022-12-22T00:37:00,lib,79.00
2022-12-22T00:38:00,lib,79.00
2022-12-22T00:39:00,lib,80.00
2022-12-22T00:40:00,lib,79.00
2022-12-22T00:41:00,lib,83.00
2022-12-22T00:42:00,lib,84.00
2022-12-22T00:43:00,lib,86.00
2022-12-22T00:44:00,lib,85.00
2022-12-22T00:45:00,lib,84.00
2022-12-22T00:46:00,lib,79.00
2022-12-22T00:47:00,lib,77.00
2022-12-22T00:48:00,lib,77.00
2022-12-22T00:49:00,lib,80.00
2022-12-22T00:50:00,lib,85.00
2022-12-22T00:51:00,lib,87.00
2022-12-22T00:52:00,lib,85.00
2022-12-22T00:53:00,lib,86.00
2022-12-22T00:54:00,lib,85.00
2022-12-22T00:55:00,lib,83.00
2022-12-22T00:56:00,lib,81.00
2022-12-22T00:57:00,lib,81.00
2022-12-22T00:58:00,lib,80.00
2022-12-22T00:59:00,lib,101.00
2022-12-22T01:00:00,lib,103.00
2022-12-22T01:01:00,lib,103.00
2022-12-22T01:02:00,lib,104.00
2022-12-22T01:03:00,lib,80.00
2022-12-22T01:04:00,lib,81.00
2022-12-22T01:05:00,lib,80.00
2022-12-22T01:06:00,lib,80.00
2022-12-22T01:07:00,lib,84.00
2022-12-22T01:08:00,lib,81.00
2022-12-22T01:09:00,lib,87.00
2022-12-22T01:10:00,lib,86.00
2022-12-22T01:11:00,lib,86.00
2022-12-22T01:12:00,lib,86.00
2022-12-22T01:13:00,lib,88.00
2022-12-22T01:14:00,lib,78.00
2022-12-22T01:15:00,lib,77.00
2022-12-22T01:16:00,lib,77.00
2022-12-22T01:17:00,lib,82.00
2022-12-22T01:18:00,lib,82.00
2022-12-22T01:19:00,lib,85.00
2022-12-22T01:20:00,lib,83.00
2022-12-22T01:21:00,lib,83.00
2022-12-22T01:22:00,lib,83.00
2022-12-22T01:23:00,lib,78.00
2022-12-22T01:24:00,lib,81.00
2022-12-22T01:25:00,lib,78.00
2022-12-22T01:26:00,lib,79.00
2022-12-22T01:27:00,lib,79.00
2022-12-22T01:28:00,lib,82.00
2022-12-22T01:29:00,lib,84.00
2022-12-22T01:30:00,lib,84.00
2022-12-22T01:31:00,lib,80.00
2022-12-22T01:32:00,lib,76.00
2022-12-22T01:33:00,lib,77.00
2022-12-22T01:34:00,lib,76.00
2022-12-22T01:35:00,lib,79.00
2022-12-22T01:36:00,lib,85.00
2022-12-22T01:37:00,lib,85.00
2022-12-22T01:38:00,lib,85.00
2022-12-22T01:39:00,lib,85.00
2022-12-22T01:40:00,lib,85.00
2022-12-22T01:41:00,lib,81.00
2022-12-22T01:42:00,lib,80.00
2022-12-22T01:43:00,lib,79.00
2022-12-22T01:44:00,lib,79.00
2022-12-22T01:45:00,lib,79.00
2022-12-22T01:46:00,lib,84.00
2022-12-22T01:47:00,lib,84.00
2022-12-22T01:48:00,lib,84.00
2022-12-22T01:49:00,lib,79.00
2022-12-22T01:50:00,lib,78.00
2022-12-22T01:51:00,lib,78.00
2022-12-22T01:52:00,lib,79.00
2022-12-22T01:53:00,lib,79.00
2022-12-22T01:54:00,lib,78.00
2022-12-22T01:55:00,lib,80.00
2022-12-22T01:56:00,lib,85.00
2022-12-22T01:57:00,lib,84.00
2022-12-22T01:58:00,lib,84.00
2022-12-22T01:59:00,lib,80.00
2022-12-22T02:00:00,lib,80.00
2022-12-22T02:01:00,lib,81.00
2022-12-22T02:02:00,lib,80.00
2022-12-22T02:03:00,lib,82.00
2022-12-22T02:04:00,lib,81.00
2022-12-22T02:05:00,lib,82.00
2022-12-22T02:06:00,lib,86.00
2022-12-22T02:07:00,lib,86.00
2022-12-22T02:08:00,lib,85.00
2022-12-22T02:09:00,lib,86.00
2022-12-22T02:10:00,lib,78.00
2022-12-22T02:11:00,lib,80.00
2022-12-22T02:12:00,lib,77.00
2022-12-22T02:13:00,lib,79.00
2022-12-22T02:14:00,lib,84.00
2022-12-22T02:15:00,lib,84.00
2022-12-22T02:16:00,lib,84.00
2022-12-22T02:17:00,lib,84.00
2022-12-22T02:18:00,lib,85.00
2022-12-22T02:19:00,lib,80.00
2022-12-22T02:20:00,lib,80.00
2022-12-22T02:21:00,lib,80.00
2022-12-22T02:22:00,lib,81.00
2022-12-22T02:23:00,lib,84.00
2022-12-22T02:24:00,lib,86.00
2022-12-22T02:25:00,lib,88.00
2022-12-22T02:26:00,lib,87.00
2022-12-22T02:27:00,lib,85.00
2022-12-22T02:28:00,lib,81.00
2022-12-22T02:29:00,lib,76.00
2022-12-22T02:30:00,lib,76.00
2022-12-22T02:31:00,lib,80.00
2022-12-22T02:32:00,lib,83.00
2022-12-22T02:33:00,lib,84.00
2022-12-22T02:34:00,lib,85.00
2022-12-22T02:35:00,lib,86.00
2022-12-22T02:36:00,lib,85.00
2022-12-22T02:37:00,lib,81.00
2022-12-22T02:38:00,lib,80.00
2022-12-22T02:39:00,lib,81.00
2022-12-22T02:40:00,lib,80.00
2022-12-22T02:41:00,lib,80.00
2022-12-22T02:42:00,lib,85.00
2022-12-22T02:43:00,lib,83.00
2022-12-22T02:44:00,lib,83.00
2022-12-22T02:45:00,lib,81.00
2022-12-22T02:46:00,lib,78.00
2022-12-22T02:47:00,lib,79.00
2022-12-22T02:48:00,lib,78.00
2022-12-22T02:49:00,lib,82.00
2022-12-22T02:50:00,lib,80.00
2022-12-22T02:51:00,lib,79.00
2022-12-22T02:52:00,lib,83.00
2022-12-22T02:53:00,lib,86.00
2022-12-22T02:54:00,lib,83.00
2022-12-22T02:55:00,lib,79.00
2022-12-22T02:56:00,lib,78.00
2022-12-22T02:57:00,lib,74.00
2022-12-22T02:58:00,lib,93.00
2022-12-22T02:59:00,lib,78.00
2022-12-22T03:00:00,lib,83.00
2022-12-22T03:01:00,lib,83.00
2022-12-22T03:02:00,lib,84.00
2022-12-22T03:03:00,lib,85.00
2022-12-22T03:04:00,lib,85.00
2022-12-22T03:05:00,lib,80.00
2022-12-22T03:06:00,lib,83.00
2022-12-22T03:07:00,lib,80.00
2022-12-22T03:08:00,lib,80.00
2022-12-22T03:09:00,lib,79.00
2022-12-22T03:10:00,lib,85.00
2022-12-22T03:11:00,lib,83.00
2022-12-22T03:12:00,lib,82.00
2022-12-22T03:13:00,lib,79.00
2022-12-22T03:14:00,lib,78.00
2022-12-22T03:15:00,lib,77.00
2022-12-22T03:16:00,lib,78.00
2022-12-22T03:17:00,lib,78.00
2022-12-22T03:18:00,lib,78.00
2022-12-22T03:19:00,lib,85.00
2022-12-22T03:20:00,lib,84.00
2022-12-22T03:21:00,lib,84.00
2022-12-22T03:22:00,lib,85.00
2022-12-22T03:23:00,lib,86.00
2022-12-22T03:24:00,lib,81.00
2022-12-22T03:25:00,lib,76.00
2022-12-22T03:26:00,lib,76.00
2022-12-22T03:27:00,lib,82.00
2022-12-22T03:28:00,lib,84.00
2022-12-22T03:29:00,lib,85.00
2022-12-22T03:30:00,lib,86.00
2022-12-22T03:31:00,lib,87.00
2022-12-22T03:32:00,lib,85.00
2022-12-22T03:33:00,lib,81.00
2022-12-22T03:34:00,lib,81.00
2022-12-22T03:35:00,lib,83.00
2022-12-22T03:36:00,lib,80.00
2022-12-22T03:37:00,lib,80.00
2022-12-22T03:38:00,lib,85.00
2022-12-22T03:39:00,lib,84.00
2022-12-22T03:40:00,lib,84.00
2022-12-22T03:41:00,lib,81.00
2022-12-22T03:42:00,lib,81.00
2022-12-22T03:43:00,lib,80.00
2022-12-22T03:44:00,lib,80.00
2022-12-22T03:45:00,lib,81.00
2022-12-22T03:46:00,lib,81.00
2022-12-22T03:47:00,lib,84.00
2022-12-22T03:48:00,lib,85.00
2022-12-22T03:49:00,lib,85.00
2022-12-22T03:50:00,lib,85.00
2022-12-22T03:51:00,lib,84.00
2022-12-22T03:52:00,lib,80.00
2022-12-22T03:53:00,lib,77.00
2022-12-22T03:54:00,lib,163.00
2022-12-22T03:55:00,lib,170.00
2022-12-22T03:56:00,lib,176.00
2022-12-22T03:57:00,lib,176.00
2022-12-22T03:58:00,lib,176.00
2022-12-22T03:59:00,lib,175.00
2022-12-22T04:00:00,lib,176.00
2022-12-22T04:01:00,lib,171.00
2022-12-22T04:02:00,lib,179.00
2022-12-22T04:03:00,lib,188.00
2022-12-22T04:04:00,lib,190.00
2022-12-22T04:05:00,lib,214.00
2022-12-22T04:06:00,lib,193.00
2022-12-22T04:07:00,lib,193.00
2022-12-22T04:08:00,lib,193.00
2022-12-22T04:09:00,lib,184.00
2022-12-22T04:10:00,lib,182.00
2022-12-22T04:11:00,lib,167.00
2022-12-22T04:12:00,lib,177.00
2022-12-22T04:13:00,lib,182.00
2022-12-22T04:14:00,lib,185.00
2022-12-22T04:15:00,lib,174.00
2022-12-22T04:16:00,lib,192.00
2022-12-22T04:17:00,lib,214.00
2022-12-22T04:18:00,lib,214.00
2022-12-22T04:19:00,lib,199.00
2022-12-22T04:20:00,lib,221.00
2022-12-22T04:21:00,lib,198.00
2022-12-22T04:22:00,lib,199.00
2022-12-22T04:23:00,lib,181.00
2022-12-22T04:24:00,lib,169.00
2022-12-22T04:25:00,lib,170.00
2022-12-22T04:26:00,lib,169.00
2022-12-22T04:27:00,lib,169.00
2022-12-22T04:28:00,lib,165.00
2022-12-22T04:29:00,lib,165.00
2022-12-22T04:30:00,lib,166.00
2022-12-22T04:31:00,lib,165.00
2022-12-22T04:32:00,lib,165.00
2022-12-22T04:33:00,lib,165.00
2022-12-22T04:34:00,lib,169.00
2022-12-22T04:35:00,lib,169.00
2022-12-22T04:36:00,lib,168.00
2022-12-22T04:37:00,lib,183.00
2022-12-22T04:38:00,lib,160.00
2022-12-22T04:39:00,lib,160.00
2022-12-22T04:40:00,lib,179.00
2022-12-22T04:41:00,lib,182.00
2022-12-22T04:42:00,lib,190.00
2022-12-22T04:43:00,lib,188.00
2022-12-22T04:44:00,lib,169.00
2022-12-22T04:45:00,lib,171.00
2022-12-22T04:46:00,lib,171.00
2022-12-22T04:47:00,lib,167.00
2022-12-22T04:48:00,lib,166.00
2022-12-22T04:49:00,lib,166.00
2022-12-22T04:50:00,lib,166.00
2022-12-22T04:51:00,lib,165.00
2022-12-22T04:52:00,lib,172.00
2022-12-22T04:53:00,lib,170.00
2022-12-22T04:54:00,lib,170.00
2022-12-22T04:55:00,lib,165.00
2022-12-22T04:56:00,lib,166.00
2022-12-22T04:57:00,lib,167.00
2022-12-22T04:58:00,lib,167.00
2022-12-22T04:59:00,lib,185.00
2022-12-22T05:00:00,lib,167.00
2022-12-22T05:01:00,lib,168.00
2022-12-22T05:02:00,lib,172.00
2022-12-22T05:03:00,lib,172.00
2022-12-22T05:04:00,lib,172.00
2022-12-22T05:05:00,lib,199.00
2022-12-22T05:06:00,lib,165.00
2022-12-22T05:07:00,lib,163.00
2022-12-22T05:08:00,lib,165.00
2022-12-22T05:09:00,lib,165.00
2022-12-22T05:10:00,lib,171.00
2022-12-22T05:11:00,lib,171.00
2022-12-22T05:12:00,lib,172.00
2022-12-22T05:13:00,lib,171.00
2022-12-22T05:14:00,lib,171.00
2022-12-22T05:15:00,lib,166.00
2022-12-22T05:16:00,lib,167.00
2022-12-22T05:17:00,lib,167.00
2022-12-22T05:18:00,lib,167.00
2022-12-22T05:19:00,lib,167.00
2022-12-22T05:20:00,lib,171.00
2022-12-22T05:21:00,lib,172.00
2022-12-22T05:22:00,lib,172.00
2022-12-22T05:23:00,lib,172.00
2022-12-22T05:24:00,lib,163.00
2022-12-22T05:25:00,lib,164.00
2022-12-22T05:26:00,lib,175.00
2022-12-22T05:27:00,lib,178.00
2022-12-22T05:28:00,lib,185.00
2022-12-22T05:29:00,lib,183.00
2022-12-22T05:30:00,lib,172.00
2022-12-22T05:31:00,lib,173.00
2022-12-22T05:32:00,lib,173.00
2022-12-22T05:33:00,lib,168.00
2022-12-22T05:34:00,lib,168.00
2022-12-22T05:35:00,lib,167.00
2022-12-22T05:36:00,lib,168.00
2022-12-22T05:37:00,lib,168.00
2022-12-22T05:38:00,lib,172.00
2022-12-22T05:39:00,lib,171.00
2022-12-22T05:40:00,lib,171.00
2022-12-22T05:41:00,lib,171.00
2022-12-22T05:42:00,lib,167.00
2022-12-22T05:43:00,lib,164.00
2022-12-22T05:44:00,lib,163.00
2022-12-22T05:45:00,lib,166.00
2022-12-22T05:46:00,lib,194.00
2022-12-22T05:47:00,lib,172.00
2022-12-22T05:48:00,lib,171.00
2022-12-22T05:49:00,lib,172.00
2022-12-22T05:50:00,lib,170.00
2022-12-22T05:51:00,lib,165.00
2022-12-22T05:52:00,lib,165.00
2022-12-22T05:53:00,lib,165.00
2022-12-22T05:54:00,lib,165.00
2022-12-22T05:55:00,lib,166.00
2022-12-22T05:56:00,lib,171.00
2022-12-22T05:57:00,lib,170.00
2022-12-22T05:58:00,lib,96.00
2022-12-22T05:59:00,lib,93.00
2022-12-22T06:00:00,lib,89.00
2022-12-22T06:01:00,lib,88.00
2022-12-22T06:02:00,lib,88.00
2022-12-22T06:03:00,lib,87.00
2022-12-22T06:04:00,lib,89.00
2022-12-22T06:05:00,lib,86.00
2022-12-22T06:06:00,lib,91.00
2022-12-22T06:07:00,lib,91.00
2022-12-22T06:08:00,lib,91.00
2022-12-22T06:09:00,lib,91.00
2022-12-22T06:10:00,lib,88.00
2022-12-22T06:11:00,lib,88.00
2022-12-22T06:12:00,lib,92.00
2022-12-22T06:13:00,lib,88.00
2022-12-22T06:14:00,lib,89.00
2022-12-22T06:15:00,lib,96.00
2022-12-22T06:16:00,lib,100.00
2022-12-22T06:17:00,lib,100.00
2022-12-22T06:18:00,lib,101.00
2022-12-22T06:19:00,lib,110.00
2022-12-22T06:20:00,lib,102.00
2022-12-22T06:21:00,lib,101.00
2022-12-22T06:22:00,lib,101.00
2022-12-22T06:23:00,lib,103.00
2022-12-22T06:24:00,lib,118.00
2022-12-22T06:25:00,lib,119.00
2022-12-22T06:26:00,lib,118.00
2022-12-22T06:27:00,lib,101.00
2022-12-22T06:28:00,lib,119.00
2022-12-22T06:29:00,lib,91.00
2022-12-22T06:30:00,lib,89.00
2022-12-22T06:31:00,lib,149.00
2022-12-22T06:32:00,lib,148.00
2022-12-22T06:33:00,lib,144.00
2022-12-22T06:34:00,lib,157.00
2022-12-22T06:35:00,lib,161.00
2022-12-22T06:36:00,lib,159.00
2022-12-22T06:37:00,lib,156.00
2022-12-22T06:38:00,lib,148.00
2022-12-22T06:39:00,lib,151.00
2022-12-22T06:40:00,lib,152.00
2022-12-22T06:41:00,lib,152.00
2022-12-22T06:42:00,lib,154.00
2022-12-22T06:43:00,lib,153.00
2022-12-22T06:44:00,lib,153.00
2022-12-22T06:45:00,lib,142.00
2022-12-22T06:46:00,lib,147.00
2022-12-22T06:47:00,lib,144.00
2022-12-22T06:48:00,lib,144.00
2022-12-22T06:49:00,lib,144.00
2022-12-22T06:50:00,lib,147.00
2022-12-22T06:51:00,lib,151.00
2022-12-22T06:52:00,lib,152.00
2022-12-22T06:53:00,lib,153.00
2022-12-22T06:54:00,lib,148.00
2022-12-22T06:55:00,lib,140.00
2022-12-22T06:56:00,lib,144.00
2022-12-22T06:57:00,lib,145.00
2022-12-22T06:58:00,lib,147.00
2022-12-22T06:59:00,lib,148.00
2022-12-22T07:00:00,lib,146.00
2022-12-22T07:01:00,lib,149.00
2022-12-22T07:02:00,lib,149.00
2022-12-22T07:03:00,lib,153.00
2022-12-22T07:04:00,lib,163.00
2022-12-22T07:05:00,lib,166.00
2022-12-22T07:06:00,lib,168.00
2022-12-22T07:07:00,lib,158.00
2022-12-22T07:08:00,lib,162.00
2022-12-22T07:09:00,lib,160.00
2022-12-22T07:10:00,lib,157.00
2022-12-22T07:11:00,lib,151.00
2022-12-22T07:12:00,lib,153.00
2022-12-22T07:13:00,lib,152.00
2022-12-22T07:14:00,lib,152.00
2022-12-22T07:15:00,lib,152.00
2022-12-22T07:16:00,lib,157.00
2022-12-22T07:17:00,lib,159.00
2022-12-22T07:18:00,lib,160.00
2022-12-22T07:19:00,lib,159.00
2022-12-22T07:20:00,lib,149.00
2022-12-22T07:21:00,lib,150.00
2022-12-22T07:22:00,lib,146.00
2022-12-22T07:23:00,lib,146.00
2022-12-22T07:24:00,lib,154.00
2022-12-22T07:25:00,lib,153.00
2022-12-22T07:26:00,lib,153.00
2022-12-22T07:27:00,lib,157.00
2022-12-22T07:28:00,lib,152.00
2022-12-22T07:29:00,lib,161.00
2022-12-22T07:30:00,lib,159.00
2022-12-22T07:31:00,lib,161.00
2022-12-22T07:32:00,lib,160.00
2022-12-22T07:33:00,lib,153.00
2022-12-22T07:34:00,lib,157.00
2022-12-22T07:35:00,lib,161.00
2022-12-22T07:36:00,lib,155.00
2022-12-22T07:37:00,lib,145.00
2022-12-22T07:38:00,lib,147.00
2022-12-22T07:39:00,lib,148.00
2022-12-22T07:40:00,lib,151.00
2022-12-22T07:41:00,lib,149.00
2022-12-22T07:42:00,lib,153.00
2022-12-22T07:43:00,lib,159.00
2022-12-22T07:44:00,lib,160.00
2022-12-22T07:45:00,lib,164.00
2022-12-22T07:46:00,lib,152.00
2022-12-22T07:47:00,lib,150.00
2022-12-22T07:48:00,lib,153.00
2022-12-22T07:49:00,lib,152.00
2022-12-22T07:50:00,lib,155.00
2022-12-22T07:51:00,lib,157.00
2022-12-22T07:52:00,lib,159.00
2022-12-22T07:53:00,lib,158.00
2022-12-22T07:54:00,lib,161.00
2022-12-22T07:55:00,lib,153.00
2022-12-22T07:56:00,lib,151.00
2022-12-22T07:57:00,lib,154.00
2022-12-22T07:58:00,lib,154.00
2022-12-22T07:59:00,lib,159.00
2022-12-22T08:00:00,lib,161.00
2022-12-22T08:01:00,lib,164.00
2022-12-22T08:02:00,lib,158.00
2022-12-22T08:03:00,lib,153.00
2022-12-22T08:04:00,lib,155.00
2022-12-22T08:05:00,lib,152.00
2022-12-22T08:06:00,lib,154.00
2022-12-22T08:07:00,lib,157.00
2022-12-22T08:08:00,lib,160.00
2022-12-22T08:09:00,lib,160.00
2022-12-22T08:10:00,lib,164.00
2022-12-22T08:11:00,lib,153.00
2022-12-22T08:12:00,lib,152.00
2022-12-22T08:13:00,lib,153.00
2022-12-22T08:14:00,lib,152.00
2022-12-22T08:15:00,lib,174.00
2022-12-22T08:16:00,lib,160.00
2022-12-22T08:17:00,lib,160.00
2022-12-22T08:18:00,lib,172.00
2022-12-22T08:19:00,lib,175.00
2022-12-22T08:20:00,lib,180.00
2022-12-22T08:21:00,lib,179.00
2022-12-22T08:22:00,lib,176.00
2022-12-22T08:23:00,lib,168.00
2022-12-22T08:24:00,lib,173.00
2022-12-22T08:25:00,lib,166.00
2022-12-22T08:26:00,lib,163.00
2022-12-22T08:27:00,lib,163.00
2022-12-22T08:28:00,lib,158.00
2022-12-22T08:29:00,lib,161.00
2022-12-22T08:30:00,lib,158.00
2022-12-22T08:31:00,lib,156.00
2022-12-22T08:32:00,lib,175.00
2022-12-22T08:33:00,lib,170.00
2022-12-22T08:34:00,lib,156.00
2022-12-22T08:35:00,lib,157.00
2022-12-22T08:36:00,lib,151.00
2022-12-22T08:37:00,lib,150.00
2022-12-22T08:38:00,lib,150.00
2022-12-22T08:39:00,lib,150.00
2022-12-22T08:40:00,lib,154.00
2022-12-22T08:41:00,lib,160.00
2022-12-22T08:42:00,lib,163.00
2022-12-22T08:43:00,lib,159.00
2022-12-22T08:44:00,lib,150.00
2022-12-22T08:45:00,lib,219.00
2022-12-22T08:46:00,lib,248.00
2022-12-22T08:47:00,lib,229.00
2022-12-22T08:48:00,lib,235.00
2022-12-22T08:49:00,lib,234.00
2022-12-22T08:50:00,lib,232.00
2022-12-22T08:51:00,lib,236.00
2022-12-22T08:52:00,lib,237.00
2022-12-22T08:53:00,lib,233.00
2022-12-22T08:54:00,lib,231.00
2022-12-22T08:55:00,lib,231.00
2022-12-22T08:56:00,lib,231.00
2022-12-22T08:57:00,lib,231.00
2022-12-22T08:58:00,lib,238.00
2022-12-22T08:59:00,lib,237.00
2022-12-22T09:00:00,lib,234.00
2022-12-22T09:01:00,lib,230.00
2022-12-22T09:02:00,lib,227.00
2022-12-22T09:03:00,lib,229.00
2022-12-22T09:04:00,lib,231.00
2022-12-22T09:05:00,lib,231.00
2022-12-22T09:06:00,lib,235.00
2022-12-22T09:07:00,lib,238.00
2022-12-22T09:08:00,lib,242.00
2022-12-22T09:09:00,lib,239.00
2022-12-22T09:10:00,lib,232.00
2022-12-22T09:11:00,lib,234.00
2022-12-22T09:12:00,lib,253.00
2022-12-22T09:13:00,lib,268.00
2022-12-22T09:14:00,lib,255.00
2022-12-22T09:15:00,lib,257.00
2022-12-22T09:16:00,lib,261.00
2022-12-22T09:17:00,lib,237.00
2022-12-22T09:18:00,lib,240.00
2022-12-22T09:19:00,lib,236.00
2022-12-22T09:20:00,lib,234.00
2022-12-22T09:21:00,lib,234.00
2022-12-22T09:22:00,lib,233.00
2022-12-22T09:23:00,lib,237.00
2022-12-22T09:24:00,lib,242.00
2022-12-22T09:25:00,lib,243.00
2022-12-22T09:26:00,lib,242.00
2022-12-22T09:27:00,lib,235.00
2022-12-22T09:28:00,lib,234.00
2022-12-22T09:29:00,lib,233.00
2022-12-22T09:30:00,lib,232.00
2022-12-22T09:31:00,lib,264.00
2022-12-22T09:32:00,lib,266.00
2022-12-22T09:33:00,lib,267.00
2022-12-22T09:34:00,lib,269.00
2022-12-22T09:35:00,lib,260.00
2022-12-22T09:36:00,lib,250.00
2022-12-22T09:37:00,lib,250.00
2022-12-22T09:38:00,lib,248.00
2022-12-22T09:39:00,lib,249.00
2022-12-22T09:40:00,lib,239.00
2022-12-22T09:41:00,lib,234.00
2022-12-22T09:42:00,lib,235.00
2022-12-22T09:43:00,lib,239.00
2022-12-22T09:44:00,lib,238.00
2022-12-22T09:45:00,lib,235.00
2022-12-22T09:46:00,lib,230.00
2022-12-22T09:47:00,lib,232.00
2022-12-22T09:48:00,lib,235.00
2022-12-22T09:49:00,lib,236.00
2022-12-22T09:50:00,lib,245.00
2022-12-22T09:51:00,lib,240.00
2022-12-22T09:52:00,lib,239.00
2022-12-22T09:53:00,lib,233.00
2022-12-22T09:54:00,lib,238.00
2022-12-22T09:55:00,lib,239.00
2022-12-22T09:56:00,lib,238.00
2022-12-22T09:57:00,lib,244.00
2022-12-22T09:58:00,lib,241.00
2022-12-22T09:59:00,lib,245.00
2022-12-22T10:00:00,lib,250.00
2022-12-22T10:01:00,lib,249.00
2022-12-22T10:02:00,lib,243.00
2022-12-22T10:03:00,lib,243.00
2022-12-22T10:04:00,lib,241.00
2022-12-22T10:05:00,lib,244.00
2022-12-22T10:06:00,lib,246.00
2022-12-22T10:07:00,lib,247.00
2022-12-22T10:08:00,lib,251.00
2022-12-22T10:09:00,lib,243.00
2022-12-22T10:10:00,lib,235.00
2022-12-22T10:11:00,lib,231.00
2022-12-22T10:12:00,lib,234.00
2022-12-22T10:13:00,lib,234.00
2022-12-22T10:14:00,lib,234.00
2022-12-22T12:36:00,lib,240.00
2022-12-22T12:37:00,lib,247.00
2022-12-22T12:38:00,lib,247.00
2022-12-22T12:39:00,lib,247.00
2022-12-22T12:40:00,lib,243.00
2022-12-22T12:41:00,lib,240.00
2022-12-22T12:42:00,lib,272.00
2022-12-22T12:43:00,lib,240.00
2022-12-22T12:44:00,lib,244.00
2022-12-22T12:45:00,lib,245.00
2022-12-22T12:46:00,lib,246.00
2022-12-22T12:47:00,lib,249.00
2022-12-22T12:48:00,lib,248.00
2022-12-22T12:49:00,lib,264.00
2022-12-22T12:50:00,lib,241.00
2022-12-22T12:51:00,lib,241.00
2022-12-22T12:52:00,lib,240.00
2022-12-22T12:53:00,lib,242.00
2022-12-22T12:54:00,lib,247.00
2022-12-22T12:55:00,lib,255.00
2022-12-22T12:56:00,lib,253.00
2022-12-22T12:57:00,lib,243.00
2022-12-22T12:58:00,lib,243.00
2022-12-22T12:59:00,lib,244.00
2022-12-22T13:00:00,lib,245.00
2022-12-22T13:01:00,lib,248.00
2022-12-22T13:02:00,lib,258.00
2022-12-22T13:03:00,lib,258.00
2022-12-22T13:04:00,lib,261.00
2022-12-22T13:05:00,lib,267.00
2022-12-22T13:06:00,lib,255.00
2022-12-22T13:07:00,lib,251.00
2022-12-22T13:08:00,lib,252.00
2022-12-22T13:09:00,lib,255.00
2022-12-22T13:10:00,lib,256.00
2022-12-22T13:11:00,lib,260.00
2022-12-22T13:12:00,lib,262.00
2022-12-22T13:13:00,lib,262.00
2022-12-22T13:14:00,lib,249.00
2022-12-22T13:15:00,lib,247.00
2022-12-22T13:16:00,lib,245.00
2022-12-22T13:17:00,lib,244.00
2022-12-22T13:18:00,lib,252.00
2022-12-22T13:19:00,lib,257.00
2022-12-22T13:20:00,lib,257.00
2022-12-22T13:21:00,lib,257.00
2022-12-22T13:22:00,lib,250.00
2022-12-22T13:23:00,lib,257.00
2022-12-22T13:24:00,lib,260.00
2022-12-22T13:25:00,lib,270.00
2022-12-22T13:26:00,lib,277.00
2022-12-22T13:27:00,lib,266.00
2022-12-22T13:28:00,lib,266.00
2022-12-22T13:29:00,lib,269.00
2022-12-22T13:30:00,lib,261.00
2022-12-22T13:31:00,lib,249.00
2022-12-22T13:32:00,lib,249.00
2022-12-22T13:33:00,lib,252.00
2022-12-22T13:34:00,lib,258.00
2022-12-22T13:35:00,lib,268.00
2022-12-22T13:36:00,lib,259.00
2022-12-22T13:37:00,lib,244.00
2022-12-22T13:38:00,lib,241.00
2022-12-22T13:39:00,lib,246.00
2022-12-22T13:40:00,lib,246.00
2022-12-22T13:41:00,lib,248.00
2022-12-22T13:42:00,lib,249.00
2022-12-22T13:43:00,lib,249.00
2022-12-22T13:44:00,lib,249.00
2022-12-22T13:45:00,lib,243.00
2022-12-22T13:46:00,lib,239.00
2022-12-22T13:47:00,lib,243.00
2022-12-22T13:48:00,lib,240.00
2022-12-22T13:49:00,lib,246.00
2022-12-22T13:50:00,lib,256.00
2022-12-22T13:51:00,lib,256.00
2022-12-22T13:52:00,lib,256.00
2022-12-22T13:53:00,lib,247.00
2022-12-22T13:54:00,lib,246.00
2022-12-22T13:55:00,lib,251.00
2022-12-22T13:56:00,lib,260.00
2022-12-22T13:57:00,lib,252.00
2022-12-22T13:58:00,lib,251.00
2022-12-22T13:59:00,lib,254.00
2022-12-22T14:00:00,lib,258.00
2022-12-22T14:01:00,lib,246.00
2022-12-22T14:02:00,lib,240.00
2022-12-22T14:03:00,lib,236.00
2022-12-22T14:04:00,lib,239.00
2022-12-22T14:05:00,lib,237.00
2022-12-22T14:06:00,lib,240.00
2022-12-22T14:07:00,lib,245.00
2022-12-22T14:08:00,lib,248.00
2022-12-22T14:09:00,lib,247.00
2022-12-22T14:10:00,lib,240.00
2022-12-22T14:11:00,lib,240.00
2022-12-22T14:12:00,lib,241.00
2022-12-22T14:13:00,lib,239.00
2022-12-22T14:14:00,lib,244.00
2022-12-22T14:15:00,lib,248.00
2022-12-22T14:16:00,lib,271.00
2022-12-22T14:17:00,lib,270.00
2022-12-22T14:18:00,lib,260.00
2022-12-22T14:19:00,lib,258.00
2022-12-22T14:20:00,lib,261.00
2022-12-22T14:21:00,lib,248.00
2022-12-22T14:22:00,lib,250.00
2022-12-22T14:23:00,lib,252.00
2022-12-22T14:24:00,lib,249.00
2022-12-22T14:25:00,lib,242.00
2022-12-22T14:26:00,lib,247.00
2022-12-22T14:27:00,lib,243.00
2022-12-22T14:28:00,lib,251.00
2022-12-22T14:29:00,lib,248.00
2022-12-22T14:30:00,lib,247.00
2022-12-22T14:31:00,lib,253.00
2022-12-22T14:32:00,lib,263.00
2022-12-22T14:33:00,lib,254.00
2022-12-22T14:34:00,lib,262.00
2022-12-22T14:35:00,lib,259.00
2022-12-22T14:36:00,lib,257.00
2022-12-22T14:37:00,lib,243.00
2022-12-22T14:38:00,lib,252.00
2022-12-22T14:39:00,lib,252.00
2022-12-22T14:40:00,lib,253.00
2022-12-22T14:41:00,lib,239.00
2022-12-22T14:42:00,lib,241.00
2022-12-22T14:43:00,lib,256.00
2022-12-22T14:44:00,lib,256.00
2022-12-22T14:45:00,lib,244.00
2022-12-22T14:46:00,lib,246.00
2022-12-22T14:47:00,lib,252.00
2022-12-22T14:48:00,lib,254.00
2022-12-22T14:49:00,lib,254.00
2022-12-22T14:50:00,lib,244.00
2022-12-22T14:51:00,lib,242.00
2022-12-22T14:52:00,lib,243.00
2022-12-22T14:53:00,lib,243.00
2022-12-22T14:54:00,lib,246.00
2022-12-22T14:55:00,lib,250.00
2022-12-22T14:56:00,lib,255.00
2022-12-22T14:57:00,lib,251.00
2022-12-22T14:58:00,lib,242.00
2022-12-22T14:59:00,lib,245.00
2022-12-22T15:00:00,lib,242.00
2022-12-22T15:01:00,lib,245.00
2022-12-22T15:02:00,lib,246.00
2022-12-22T15:03:00,lib,247.00
2022-12-22T15:04:00,lib,250.00
2022-12-22T15:05:00,lib,252.00
2022-12-22T15:06:00,lib,243.00
2022-12-22T15:07:00,lib,240.00
2022-12-22T15:08:00,lib,242.00
2022-12-22T15:09:00,lib,239.00
2022-12-22T15:10:00,lib,245.00
2022-12-22T15:11:00,lib,251.00
2022-12-22T15:12:00,lib,250.00
2022-12-22T15:13:00,lib,250.00
2022-12-22T15:14:00,lib,242.00
2022-12-22T15:15:00,lib,241.00
2022-12-22T15:16:00,lib,239.00
2022-12-22T15:17:00,lib,244.00
2022-12-22T15:18:00,lib,251.00
2022-12-22T15:19:00,lib,253.00
2022-12-22T15:20:00,lib,251.00
2022-12-22T15:21:00,lib,252.00